TimeCDT,TemperatureF,Dew PointF,Humidity,Sea Level PressureIn,VisibilityMPH,Wind Direction,Wind SpeedMPH,Gust SpeedMPH,PrecipitationIn,Events,Conditions,WindDirDegrees,DateUTC
12:54 AM,57.0,44.1,62,30.09,10.0,SSW,5.8,-,N/A,,Clear,210,2013-10-08 05:54:00
1:54 AM,57.0,44.1,62,30.09,10.0,SSW,6.9,-,N/A,,Clear,210,2013-10-08 06:54:00
2:54 AM,54.0,44.1,69,30.10,10.0,SSW,5.8,-,N/A,,Clear,210,2013-10-08 07:54:00
3:54 AM,55.0,44.1,67,30.09,10.0,SSW,6.9,-,N/A,,Clear,200,2013-10-08 08:54:00
4:54 AM,55.0,44.1,67,30.09,10.0,SSW,9.2,-,N/A,,Clear,210,2013-10-08 09:54:00
5:54 AM,55.0,43.0,64,30.09,10.0,SSW,9.2,-,N/A,,Clear,200,2013-10-08 10:54:00
6:54 AM,54.0,43.0,66,30.10,10.0,SSW,4.6,-,N/A,,Clear,210,2013-10-08 11:54:00
7:54 AM,55.0,44.1,67,30.10,10.0,Variable,4.6,-,N/A,,Clear,0,2013-10-08 12:54:00
8:54 AM,59.0,46.0,62,30.11,10.0,Calm,Calm,-,N/A,,Clear,0,2013-10-08 13:54:00
9:54 AM,64.0,48.0,56,30.11,10.0,SSW,9.2,-,N/A,,Clear,200,2013-10-08 14:54:00
10:54 AM,68.0,48.9,50,30.10,10.0,South,9.2,-,N/A,,Clear,190,2013-10-08 15:54:00
11:54 AM,72.0,48.0,43,30.10,10.0,South,16.1,21.9,N/A,,Clear,190,2013-10-08 16:54:00
12:54 PM,73.9,46.9,38,30.08,10.0,SSW,13.8,-,N/A,,Clear,200,2013-10-08 17:54:00
1:54 PM,75.0,45.0,34,30.06,10.0,SSW,13.8,-,N/A,,Clear,200,2013-10-08 18:54:00
2:54 PM,75.9,46.0,35,30.04,10.0,South,13.8,19.6,N/A,,Clear,180,2013-10-08 19:54:00
3:54 PM,75.9,44.1,32,30.02,10.0,South,15.0,-,N/A,,Clear,190,2013-10-08 20:54:00
4:54 PM,75.0,44.1,33,30.02,10.0,South,13.8,-,N/A,,Clear,190,2013-10-08 21:54:00
5:54 PM,73.9,45.0,35,30.01,10.0,SSE,8.1,-,N/A,,Clear,160,2013-10-08 22:54:00
6:54 PM,71.1,45.0,39,30.01,10.0,South,9.2,-,N/A,,Clear,170,2013-10-08 23:54:00
7:54 PM,69.1,46.9,45,30.03,10.0,SSE,8.1,16.1,N/A,,Clear,160,2013-10-09 00:54:00
8:54 PM,66.9,48.0,51,30.03,10.0,SE,5.8,-,N/A,,Clear,140,2013-10-09 01:54:00
9:54 PM,66.0,48.0,52,30.04,10.0,South,4.6,-,N/A,,Clear,170,2013-10-09 02:54:00
10:54 PM,64.0,48.0,56,30.04,10.0,Variable,3.5,-,N/A,,Clear,0,2013-10-09 03:54:00
11:54 PM,63.0,48.0,58,30.03,10.0,SSE,4.6,-,N/A,,Clear,160,2013-10-09 04:54:00